Weather History for Hurlburt Field, FL

Change the Weather History Date:

Monday, November 18, 2013

  Actual Average Record
Temperature  
Mean Temperature 66 °F -  
Max Temperature 73 °F 68 °F 78 °F (2003)
Min Temperature 58 °F 49 °F 26 °F (2014)
Cooling Degree Days 1    
Growing Degree Days 16 (Base 50)    
Moisture  
Dew Point 67 °F    
Average Humidity 88    
Maximum Humidity 94    
Minimum Humidity 46    
Precipitation  
Precipitation 3.11 in - - ()
Sea Level Pressure  
Sea Level Pressure 29.98 in    
Wind  
Wind Speed 5 mph (WSW)    
Max Wind Speed 16 mph    
Max Gust Speed 17 mph    
Visibility 4 miles    
Events Fog , Rain    
Averages and records for this station are not official NWS values.
T = Trace of Precipitation, MM = Missing Value Source: NWS Daily Summary

Daily Weather History Graph

Daily Weather History Graph

Search for Another Location

Airport:

Trip Planner

Search our weather history database for the weather conditions in past years. The results will help you decide how hot, cold, wet, or windy it might be!

Date:

Astronomy

Nov. 18, 2013 Rise Set
Actual Time 6:15 AM CST 4:48 PM CST
Civil Twilight 5:49 AM CST 5:13 PM CST
Nautical Twilight 5:20 AM CST 5:43 PM CST
Astronomical Twilight 4:51 AM CST 6:11 PM CST
Moon 5:51 PM CST (11/18) 7:02 AM CST (11/18)
Length of Visible Light 11h 24m
Length of Day
10h 33m
Full, 99% of the Moon is Illuminated
Nov 18
Full
Nov 25
Last Quarter
Dec 2
New
Dec 9
First Quarter
Dec 17
Full

Hourly Weather History & Observations

Time (CST) Temp. Dew Point Humidity Pressure Visibility Wind Dir Wind Speed Gust Speed Precip Events Conditions
12:08 AM 73.4 °F 71.6 °F 94% 29.98 in 9.0 mi South 6.9 mph - N/A   Overcast
12:13 AM 73.4 °F 71.6 °F 94% 29.98 in 3.0 mi South 3.5 mph - N/A   Overcast
12:18 AM 73.4 °F 69.8 °F 88% 29.98 in 1.0 mi South 2.3 mph - N/A   Mist
12:23 AM 73.4 °F 69.8 °F 88% 29.98 in 0.5 mi South 1.2 mph - N/A Fog Fog
12:53 AM 71.6 °F 69.8 °F 94% 29.97 in 0.8 mi Calm Calm - N/A   Mist
12:58 AM 72.5 °F 69.8 °F 91% 29.98 in 0.8 mi Calm Calm - N/A   Mist
1:03 AM 73.4 °F 69.8 °F 88% 29.97 in 1.5 mi Calm Calm - N/A   Overcast
1:08 AM 73.4 °F 69.8 °F 88% 29.97 in 1.8 mi Calm Calm - N/A   Overcast
1:13 AM 73.4 °F 69.8 °F 88% 29.97 in 2.5 mi Calm Calm - N/A   Overcast
1:18 AM 73.4 °F 69.8 °F 88% 29.96 in 4.0 mi East 1.2 mph - N/A   Overcast
1:28 AM 73.4 °F 69.8 °F 88% 29.96 in 2.5 mi Calm Calm - N/A   Overcast
1:38 AM 73.4 °F 69.8 °F 88% 29.96 in 1.8 mi SSE 1.2 mph - N/A   Overcast
1:43 AM 73.4 °F 69.8 °F 88% 29.97 in 1.5 mi South 2.3 mph - N/A   Overcast
1:58 AM 73.0 °F 69.6 °F 89% 29.98 in 1.0 mi SSW 2.3 mph - N/A   Mist
2:03 AM 73.4 °F 69.8 °F 88% 29.96 in 0.8 mi South 2.3 mph - N/A   Mist
2:23 AM 73.4 °F 69.8 °F 88% 29.96 in 0.8 mi South 2.3 mph - N/A   Mist
2:38 AM 73.4 °F 69.8 °F 88% 29.95 in 1.0 mi SSW 2.3 mph - N/A   Mist
2:53 AM 73.4 °F 69.8 °F 88% 29.95 in 1.2 mi SW 4.6 mph - N/A   Overcast
2:58 AM 73.2 °F 69.6 °F 88% 29.96 in 1.5 mi SSW 3.5 mph - N/A   Overcast
3:08 AM 73.4 °F 69.8 °F 88% 29.95 in 1.0 mi SW 3.5 mph - N/A   Mist
3:26 AM 73.4 °F 69.8 °F 88% 29.94 in 1.0 mi South 2.3 mph - N/A Rain Light Rain
3:36 AM 73.4 °F 69.8 °F 88% 29.94 in 0.8 mi SW 2.3 mph - N/A Rain Light Rain
3:39 AM 73.4 °F 69.8 °F 88% 29.94 in 0.8 mi SW 3.5 mph - N/A   Mist
3:58 AM 73.2 °F 70.0 °F 90% 29.95 in 0.8 mi WSW 3.5 mph - 0.01 in   Mist
3:59 AM 73.4 °F 69.8 °F 88% 29.94 in 0.8 mi WSW 3.5 mph - N/A Rain Light Rain
4:04 AM 73.4 °F 69.8 °F 88% 29.94 in 0.8 mi SW 3.5 mph - N/A Rain Light Rain
4:14 AM 73.4 °F 69.8 °F 88% 29.93 in 1.0 mi WSW 2.3 mph - N/A Rain Rain
4:19 AM 73.4 °F 69.8 °F 88% 29.93 in 2.0 mi SW 4.6 mph - N/A Rain Rain
4:24 AM 73.4 °F 69.8 °F 88% 29.94 in 4.0 mi SSW 4.6 mph - N/A Rain Rain
4:29 AM 73.4 °F 69.8 °F 88% 29.94 in 5.0 mi SSW 5.8 mph - N/A Rain Rain
4:39 AM 73.4 °F 69.8 °F 88% 29.94 in 3.0 mi SW 10.4 mph 17.3 mph N/A Rain Heavy Rain
4:44 AM 73.4 °F 69.8 °F 88% 29.94 in 3.0 mi SSW 8.1 mph - N/A Rain Rain
4:49 AM 71.6 °F 69.8 °F 94% 29.93 in 4.0 mi SSW 8.1 mph - N/A Rain Rain
4:58 AM 72.3 °F 69.4 °F 91% 29.95 in 5.0 mi WSW 5.8 mph - 0.22 in Rain Rain
5:18 AM 71.6 °F 68.0 °F 88% 29.96 in 6.0 mi SW 9.2 mph - N/A Rain Rain
5:23 AM 71.6 °F 68.0 °F 88% 29.96 in 8.0 mi SW 9.2 mph - N/A Rain Light Rain
5:28 AM 71.6 °F 68.0 °F 88% 29.96 in 10.0 mi SW 6.9 mph - N/A Rain Light Rain
5:33 AM 71.6 °F 68.0 °F 88% 29.96 in 10.0 mi SW 6.9 mph - N/A Rain Light Rain
5:43 AM 71.6 °F 69.8 °F 94% 29.96 in 9.0 mi SW 9.2 mph - N/A Rain Light Rain
5:48 AM 71.6 °F 68.0 °F 88% 29.96 in 9.0 mi SW 6.9 mph - N/A Rain Light Rain
5:58 AM 71.4 °F 68.7 °F 91% 29.97 in 4.0 mi WSW 8.1 mph - 0.10 in Rain Light Rain
6:03 AM 71.6 °F 68.0 °F 88% 29.95 in 6.0 mi WSW 9.2 mph - N/A Rain Light Rain
6:15 AM 69.8 °F 68.0 °F 94% 29.95 in 10.0 mi West 3.5 mph - N/A   Mostly Cloudy
6:31 AM 69.8 °F 68.0 °F 94% 29.96 in 10.0 mi West 5.8 mph - N/A   Light Drizzle
6:56 AM 69.8 °F 68.0 °F 94% 29.98 in 1.5 mi WSW 5.8 mph - N/A Rain Heavy Rain
6:59 AM 69.8 °F 68.0 °F 94% 29.98 in 1.0 mi SW 6.9 mph - 0.06 in Rain Heavy Rain
7:04 AM 69.8 °F 68.0 °F 94% 29.97 in 0.5 mi SSW 9.2 mph - N/A Fog , Rain Heavy Rain
7:09 AM 69.8 °F 68.0 °F 94% 29.97 in 1.2 mi WSW 8.1 mph - N/A Rain Rain
7:14 AM 69.8 °F 68.0 °F 94% 29.98 in 2.0 mi SW 5.8 mph - N/A Rain Heavy Rain
7:19 AM 69.8 °F 68.0 °F 94% 29.98 in 1.0 mi SW 5.8 mph - N/A Rain Heavy Rain
7:24 AM 69.8 °F 68.0 °F 94% 29.97 in 0.8 mi Variable 4.6 mph - N/A Rain Heavy Rain
7:29 AM 69.8 °F 68.0 °F 94% 29.97 in 0.5 mi SSW 6.9 mph - N/A Fog , Rain Heavy Rain
7:34 AM 69.8 °F 68.0 °F 94% 29.97 in 1.0 mi Variable 5.8 mph - N/A Rain Rain
7:39 AM 69.8 °F 68.0 °F 94% 29.98 in 4.0 mi SW 8.1 mph - N/A Rain Light Rain
7:49 AM 69.8 °F 68.0 °F 94% 29.98 in 1.2 mi SSW 12.7 mph - N/A Rain Heavy Rain
7:54 AM 69.8 °F 66.2 °F 88% 29.99 in 1.0 mi SSW 12.7 mph - N/A Rain Heavy Rain
7:58 AM 69.8 °F 68.0 °F 94% 30.00 in 1.8 mi SSW 12.7 mph - 0.77 in Rain Heavy Rain
8:03 AM 69.8 °F 68.0 °F 94% 29.99 in 3.0 mi South 9.2 mph - N/A Rain Rain
8:13 AM 69.8 °F 68.0 °F 94% 30.00 in 2.0 mi West 9.2 mph - N/A Rain Light Rain
8:18 AM 69.8 °F 68.0 °F 94% 30.00 in 1.2 mi SW 8.1 mph - N/A Rain Heavy Rain
8:23 AM 69.8 °F 68.0 °F 94% 29.99 in 0.8 mi South 16.1 mph - N/A Rain Heavy Rain
8:28 AM 69.8 °F 68.0 °F 94% 30.01 in 0.8 mi SW 10.4 mph - N/A Rain Heavy Rain
8:33 AM 69.8 °F 66.2 °F 88% 30.01 in 1.2 mi WSW 13.8 mph - N/A Rain Heavy Rain
8:38 AM 69.8 °F 66.2 °F 88% 30.01 in 0.8 mi SSW 16.1 mph - N/A Rain Heavy Rain
8:42 AM 69.8 °F 66.2 °F 88% 30.00 in 0.5 mi SSW 13.8 mph - N/A Fog , Rain Heavy Rain
8:47 AM 69.8 °F 66.2 °F 88% 30.01 in 1.0 mi SSW 8.1 mph - N/A Rain Light Rain
8:52 AM 69.8 °F 66.2 °F 88% 30.02 in 3.0 mi WSW 6.9 mph - N/A Rain Rain
8:58 AM 69.8 °F 66.2 °F 88% 30.03 in 1.5 mi SW 3.5 mph - 0.79 in Rain Rain
9:03 AM 69.8 °F 66.2 °F 88% 30.01 in 0.8 mi South 5.8 mph - N/A Rain Heavy Rain
9:08 AM 69.8 °F 66.2 °F 88% 30.01 in 1.0 mi SSW 8.1 mph - N/A Rain Heavy Rain
9:13 AM 69.8 °F 66.2 °F 88% 30.01 in 1.2 mi SW 8.1 mph - N/A Rain Heavy Rain
9:18 AM 69.8 °F 66.2 °F 88% 30.01 in 2.5 mi SW 6.9 mph - N/A Rain Light Rain
9:23 AM 69.8 °F 66.2 °F 88% 30.01 in 7.0 mi South 2.3 mph - N/A Rain Light Rain
9:28 AM 69.8 °F 66.2 °F 88% 30.01 in 7.0 mi SW 4.6 mph - N/A Rain Light Rain
9:33 AM 69.8 °F 66.2 °F 88% 30.01 in 6.0 mi WSW 4.6 mph - N/A Rain Light Rain
9:38 AM 69.8 °F 66.2 °F 88% 30.01 in 5.0 mi WSW 4.6 mph - N/A Rain Light Rain
9:43 AM 69.8 °F 66.2 °F 88% 30.01 in 5.0 mi SSW 3.5 mph - N/A Rain Light Rain
9:48 AM 69.8 °F 66.2 °F 88% 30.01 in 6.0 mi SW 5.8 mph - N/A Rain Light Rain
9:53 AM 69.8 °F 66.2 °F 88% 30.01 in 3.0 mi SW 4.6 mph - N/A Rain Rain
9:58 AM 69.6 °F 67.1 °F 92% 30.02 in 3.0 mi SW 5.8 mph - 0.31 in Rain Light Rain
10:03 AM 69.8 °F 68.0 °F 94% 30.01 in 5.0 mi WSW 4.6 mph - N/A Rain Light Rain
10:23 AM 69.8 °F 66.2 °F 88% 30.01 in 2.0 mi West 3.5 mph - N/A Rain Heavy Rain
10:28 AM 69.8 °F 66.2 °F 88% 30.01 in 0.8 mi West 4.6 mph - N/A Rain Heavy Rain
10:33 AM 69.8 °F 66.2 °F 88% 30.01 in 0.5 mi WSW 3.5 mph - N/A Fog , Rain Heavy Rain
10:38 AM 69.8 °F 66.2 °F 88% 30.01 in 0.8 mi SW 3.5 mph - N/A Rain Heavy Rain
10:43 AM 69.8 °F 66.2 °F 88% 30.01 in 1.2 mi WSW 4.6 mph - N/A Rain Rain
10:53 AM 68.0 °F 66.2 °F 94% 30.00 in 0.8 mi SW 4.6 mph - N/A Rain Heavy Rain
10:58 AM 68.7 °F 66.4 °F 92% 30.02 in 1.2 mi SW 4.6 mph - 0.51 in Rain Light Rain
11:03 AM 69.8 °F 66.2 °F 88% 30.01 in 2.0 mi NW 1.2 mph - N/A Rain Rain
11:08 AM 69.8 °F 66.2 °F 88% 30.00 in 1.8 mi West 3.5 mph - N/A Rain Rain
11:13 AM 69.8 °F 66.2 °F 88% 30.01 in 2.0 mi NW 3.5 mph - N/A Rain Rain
11:18 AM 69.8 °F 66.2 °F 88% 30.00 in 1.8 mi NNW 4.6 mph - N/A Rain Heavy Rain
11:28 AM 69.8 °F 66.2 °F 88% 30.00 in 1.2 mi NW 3.5 mph - N/A Rain Heavy Rain
11:33 AM 69.8 °F 66.2 °F 88% 30.00 in 0.8 mi NNW 4.6 mph - N/A Rain Heavy Rain
11:38 AM 69.8 °F 66.2 °F 88% 30.00 in 1.0 mi NNW 5.8 mph - N/A Rain Heavy Rain
11:43 AM 69.8 °F 66.2 °F 88% 30.00 in 2.5 mi NNW 5.8 mph - N/A Rain Heavy Rain
11:48 AM 69.8 °F 66.2 °F 88% 29.99 in 4.0 mi NNW 4.6 mph - N/A Rain Rain
11:53 AM 69.8 °F 66.2 °F 88% 29.99 in 5.0 mi NNW 4.6 mph - N/A Rain Light Rain
11:58 AM 69.4 °F 66.7 °F 91% 30.00 in 7.0 mi NNW 5.8 mph - 0.32 in Rain Light Rain
12:03 PM 69.8 °F 66.2 °F 88% 29.98 in 10.0 mi North 4.6 mph - N/A Rain Light Rain
12:08 PM 69.8 °F 68.0 °F 94% 29.99 in 9.0 mi NNW 4.6 mph - N/A Rain Light Rain
12:18 PM 69.8 °F 68.0 °F 94% 29.98 in 6.0 mi NNW 5.8 mph - N/A Rain Light Rain
12:54 PM 71.6 °F 68.0 °F 88% 29.98 in 10.0 mi NNW 6.9 mph - N/A   Mostly Cloudy
12:58 PM 70.9 °F 68.2 °F 91% 29.98 in 10.0 mi NNW 5.8 mph - 0.02 in   Mostly Cloudy
1:03 PM 71.6 °F 68.0 °F 88% 29.97 in 10.0 mi NNW 6.9 mph - N/A   Scattered Clouds
1:21 PM 71.6 °F 68.0 °F 88% 29.96 in 10.0 mi NW 5.8 mph - N/A Rain Light Rain
1:58 PM 71.6 °F 69.1 °F 92% 29.96 in 10.0 mi NW 2.3 mph - 0.00 in Rain Light Rain
2:51 PM 73.4 °F 69.8 °F 88% 29.95 in 10.0 mi NNW 4.6 mph - N/A   Clear
2:58 PM 72.9 °F 70.0 °F 91% 29.95 in 10.0 mi Calm Calm - 0.00 in Rain Light Rain
3:13 PM 73.4 °F 69.8 °F 88% 29.94 in 10.0 mi SSE 2.3 mph - N/A   Partly Cloudy
3:32 PM 73.4 °F 69.8 °F 88% 29.94 in 10.0 mi NW 3.5 mph - N/A Rain Light Rain
3:35 PM 73.4 °F 69.8 °F 88% 29.94 in 10.0 mi NNW 5.8 mph - N/A   Scattered Clouds
3:58 PM 73.0 °F 68.2 °F 85% 29.96 in 10.0 mi North 8.1 mph - 0.00 in   Scattered Clouds
7:58 PM 64.6 °F 51.3 °F 62% 30.02 in 10.0 mi North 9.2 mph - N/A   Clear
8:58 PM 62.4 °F 45.9 °F 55% 30.03 in 10.0 mi North 11.5 mph - N/A   Clear
9:58 PM 60.3 °F 43.2 °F 53% 30.04 in 10.0 mi North 10.4 mph - N/A   Clear
10:58 PM 59.9 °F 39.9 °F 48% 30.04 in 10.0 mi North 10.4 mph - N/A   Clear
11:58 PM 58.5 °F 37.9 °F 46% 30.04 in 10.0 mi NNE 10.4 mph - N/A   Clear